Location: Corcelles
(46.1547°N, 4.7234°E)
Time: 04:11:52
(UTC+00:00)

CZ-4B R/B - Pass Details

Date: 14 July 2020
Orbit: 702 x 803 km, 98.9° (Epoch: 06 August)

Event Time Altitude Azimuth Distance (km) Brightness Sun altitude
Rises 02:18:29 0° 10° (N) 3,253 8.0 -14.0°
Reaches altitude 10° 02:20:53 10° 6° (N) 2,306 6.9 -13.8°
Maximum altitude 02:25:47 52° 291° (WNW) 922 3.8 -13.3°
Enters shadow 02:29:10 19° 221° (SW) 1,715 4.7 -12.9°
